FW8778 Weather Reports


time (UTC)temp
C
wind
direction
speed
KPH
gust
KPH
rain 1hr
cm
rain 24hr
cm
rain mn
cm
humidity
%
barometer
mb
20240222101521 12 359 0.0 0.0 0.00 0.00 0.00 55 1021.6
20240222100020 12 359 0.0 0.0 0.00 0.00 0.00 55 1021.8
20240222094518 12 359 0.0 0.0 0.00 0.00 0.00 56 1022.0
20240222093023 12 359 0.0 0.0 0.00 0.00 0.00 55 1022.0
20240222091515 12 359 0.0 0.0 0.00 0.00 0.00 55 1022.0
20240222090014 11 359 0.0 0.0 0.00 0.00 0.00 54 1021.9
20240222084519 11 359 0.0 0.0 0.00 0.00 0.00 55 1021.9
20240222083021 11 359 0.0 0.0 0.00 0.00 0.00 53 1021.9
20240222081511 11 359 0.0 0.0 0.00 0.00 0.00 51 1022.1
20240222080006 10 359 0.0 0.0 0.00 0.00 0.00 55 1022.1
20240222074502 10 359 0.0 0.0 0.00 0.00 0.00 57 1022.2
20240222073110 8 359 0.0 0.0 0.00 0.00 0.00 57 1022.3
20240222071556 8 359 0.0 0.0 0.00 0.00 0.00 61 1022.3
20240222070104 7 359 0.0 0.0 0.00 0.00 0.00 64 1022.2
20240222064627 6 359 0.0 0.0 0.00 0.00 0.00 65 1022.3
20240222063056 6 359 0.0 0.0 0.00 0.00 0.00 66 1022.1
20240222061553 5 359 0.0 0.0 0.00 0.00 0.00 66 1022.0
20240222060051 5 359 0.0 0.0 0.00 0.00 0.00 65 1022.1
20240222054551 5 359 0.0 0.0 0.00 0.00 0.00 65 1021.9
20240222053051 5 359 0.0 0.0 0.00 0.00 0.00 66 1021.8
20240222051552 5 359 0.0 0.0 0.00 0.00 0.00 66 1021.8
20240222050051 5 359 0.0 0.0 0.00 0.00 0.00 66 1021.8
20240222044549 5 359 0.0 0.0 0.00 0.00 0.00 66 1021.7
20240222043049 5 359 0.0 0.0 0.00 0.00 0.00 66 1021.7
20240222041552 5 359 0.0 0.0 0.00 0.00 0.00 66 1021.6
20240222040047 5 359 0.0 0.0 0.00 0.00 0.00 65 1021.7
20240222034548 5 359 0.0 0.0 0.00 0.00 0.00 65 1021.7
20240222033046 6 359 0.0 0.0 0.00 0.00 0.00 65 1021.6
20240222031550 5 359 0.0 0.0 0.00 0.00 0.00 66 1021.6
20240222030053 5 359 0.0 0.0 0.00 0.00 0.00 65 1021.6
20240222024543 6 359 0.0 0.0 0.00 0.00 0.00 65 1021.7
20240222023046 6 359 0.0 0.0 0.00 0.00 0.00 65 1021.7
20240222021601 6 359 0.0 0.0 0.00 0.00 0.00 64 1021.8
20240222020038 6 359 0.0 0.0 0.00 0.00 0.00 64 1021.9
20240222014552 6 359 0.0 0.0 0.00 0.00 0.00 64 1021.9
20240222013034 6 359 0.0 0.0 0.00 0.00 0.00 63 1022.0
20240222011544 6 359 0.0 0.0 0.00 0.00 0.00 63 1022.1
20240222010037 6 359 0.0 0.0 0.00 0.00 0.00 63 1022.3
20240222004534 6 359 0.0 0.0 0.00 0.00 0.00 62 1022.5
20240222003030 7 359 0.0 0.0 0.00 0.00 0.00 61 1022.5
20240222001526 7 359 0.0 0.0 0.00 0.00 0.00 60 1022.6
20240222000031 7 359 0.0 0.0 0.00 0.00 0.00 60 1022.7
20240221234524 7 359 0.0 0.0 0.00 0.00 0.00 61 1022.8
20240221233023 7 359 0.0 0.0 0.00 0.00 0.00 60 1022.8
20240221231525 7 359 0.0 0.0 0.00 0.00 0.00 60 1022.8
20240221230019 7 359 0.0 0.0 0.00 0.00 0.00 59 1022.7
20240221224519 7 359 0.0 0.0 0.00 0.00 0.00 60 1022.7
20240221223018 7 359 0.0 0.0 0.00 0.00 0.00 60 1022.8
20240221221518 7 359 0.0 0.0 0.00 0.00 0.00 60 1022.7
20240221220017 7 359 0.0 0.0 0.00 0.00 0.00 61 1022.7
20240221214520 7 359 0.0 0.0 0.00 0.00 0.00 63 1022.8
20240221213020 7 359 0.0 0.0 0.00 0.00 0.00 64 1022.9
20240221211520 7 359 0.0 0.0 0.00 0.00 0.00 62 1022.8
20240221210013 8 359 0.0 0.0 0.00 0.00 0.00 59 1022.8
20240221204513 8 359 0.0 0.0 0.00 0.00 0.00 58 1022.8
20240221203026 9 359 0.0 0.0 0.00 0.00 0.00 56 1023.0
20240221201511 9 359 0.0 0.0 0.00 0.00 0.00 55 1023.0
20240221200011 9 359 0.0 0.0 0.00 0.00 0.00 53 1022.9
20240221194513 9 359 0.0 0.0 0.00 0.00 0.00 53 1022.9
20240221193011 9 359 0.0 0.0 0.00 0.00 0.00 55 1022.8
20240221191508 8 359 0.0 0.0 0.00 0.00 0.00 60 1022.8
20240221190007 8 359 0.0 0.0 0.00 0.00 0.00 62 1022.8
20240221184507 9 359 0.0 0.0 0.00 0.00 0.00 61 1022.8
20240221183011 9 359 0.0 0.0 0.00 0.00 0.00 60 1022.6
20240221181504 10 359 0.0 0.0 0.00 0.00 0.00 60 1022.6
20240221180002 10 359 0.0 0.0 0.00 0.00 0.00 61 1022.3
20240221174502 10 359 0.0 0.0 0.00 0.00 0.00 59 1022.3
20240221173002 10 359 0.0 0.0 0.00 0.00 0.00 63 1022.1
20240221171502 11 359 0.0 0.0 0.00 0.00 0.00 60 1021.9
20240221170002 11 359 0.0 0.0 0.00 0.00 0.00 60 1021.7
20240221164601 11 359 0.0 0.0 0.00 0.00 0.00 59 1021.5
20240221163107 11 359 0.0 0.0 0.00 0.00 0.00 65 1021.4
20240221161600 11 359 0.0 0.0 0.00 0.00 0.00 66 1021.2
20240221160146 12 359 0.0 0.0 0.00 0.00 0.00 64 1021.0
20240221154559 12 359 0.0 0.0 0.00 0.00 0.00 59 1020.8
20240221153103 13 359 0.0 0.0 0.00 0.00 0.00 53 1020.7
20240221151630 13 359 0.0 0.0 0.00 0.00 0.00 59 1020.6
20240221150100 13 359 0.0 0.0 0.00 0.00 0.00 58 1020.7
20240221144556 14 359 0.0 0.0 0.00 0.00 0.00 51 1020.6
20240221143056 13 359 0.0 0.0 0.00 0.00 0.00 48 1020.6
20240221141556 13 359 0.0 0.0 0.00 0.00 0.00 47 1020.7
20240221140055 13 359 0.0 0.0 0.00 0.00 0.00 46 1020.8
20240221134555 13 359 0.0 0.0 0.00 0.00 0.00 46 1020.9
20240221133055 14 359 0.0 0.0 0.00 0.00 0.00 45 1020.8
20240221131553 14 359 0.0 0.0 0.00 0.00 0.00 45 1020.8
20240221130053 14 359 0.0 0.0 0.00 0.00 0.00 46 1020.8
20240221124554 14 359 0.0 0.0 0.00 0.00 0.00 43 1020.9
20240221123053 15 359 0.0 0.0 0.00 0.00 0.00 44 1021.1
20240221121603 15 359 0.0 0.0 0.00 0.00 0.00 45 1021.2
20240221120052 14 359 0.0 0.0 0.00 0.00 0.00 44 1021.4
20240221114554 14 359 0.0 0.0 0.00 0.03 0.00 42 1021.5
20240221113050 14 359 0.0 0.0 0.00 0.03 0.00 44 1021.5
20240221111600 14 359 0.0 0.0 0.00 0.03 0.00 44 1021.6
20240221110053 14 359 0.0 0.0 0.00 0.03 0.00 44 1021.9
20240221104549 15 359 0.0 0.0 0.00 0.05 0.00 44 1022.0
20240221103048 15 359 0.0 1.6 0.00 0.05 0.00 46 1022.1